QPF
0.00 0.00 0.00 0.00 0.00 0.01 0.00 0.00 0.00 0.00 0.00 0.00 0.00 0.00 0.00 0.00 0.01 0.02 0.03 0.03 0.04 0.04 0.03 0.01 0.01 0.01 0.01 0.01 0.01 0.01 0.02 0.02 0.01 0.01 0.02 0.02 0.02 0.02 0.02 0.02 0.04 0.04 0.02 0.02 0.01 0.00 0.00 0.00 0.00
0.00 0.00 0.00 0.01 0.01 0.01 0.01 0.00 0.00 0.00 0.00 0.01 0.01 0.00 0.00 0.00 0.01 0.02 0.02 0.03 0.04 0.04 0.03 0.02 0.01 0.01 0.01 0.01 0.01 0.02 0.02 0.02 0.02 0.01 0.02 0.02 0.02 0.03 0.02 0.02 0.02 0.03 0.03 0.02 0.01 0.00 0.00 0.00 0.00
0.00 0.00 0.01 0.01 0.00 0.01 0.01 0.01 0.01 0.00 0.00 0.00 0.01 0.00 0.00 0.01 0.01 0.02 0.02 0.04 0.06 0.04 0.03 0.02 0.01 0.01 0.02 0.01 0.01 0.01 0.02 0.02 0.02 0.02 0.03 0.02 0.02 0.02 0.01 0.01 0.01 0.02 0.02 0.02 0.01 0.00 0.00 0.00 0.00
0.00 0.00 0.01 0.01 0.00 0.01 0.01 0.01 0.01 0.01 0.00 0.00 0.01 0.01 0.01 0.02 0.02 0.02 0.03 0.05 0.06 0.03 0.02 0.02 0.01 0.01 0.01 0.02 0.01 0.01 0.01 0.02 0.02 0.02 0.02 0.02 0.02 0.02 0.01 0.01 0.01 0.02 0.03 0.03 0.02 0.01 0.00 0.00 0.00
0.00 0.00 0.01 0.01 0.01 0.01 0.01 0.01 0.02 0.01 0.01 0.01 0.01 0.01 0.02 0.03 0.03 0.03 0.04 0.04 0.03 0.02 0.01 0.01 0.01 0.01 0.01 0.01 0.01 0.01 0.01 0.01 0.01 0.01 0.02 0.02 0.01 0.01 0.01 0.01 0.01 0.02 0.03 0.04 0.03 0.02 0.01 0.00 0.00
0.01 0.00 0.00 0.01 0.02 0.02 0.02 0.01 0.02 0.01 0.01 0.01 0.01 0.01 0.04 0.05 0.03 0.03 0.02 0.03 0.02 0.02 0.01 0.01 0.01 0.01 0.01 0.01 0.01 0.01 0.01 0.01 0.01 0.01 0.02 0.01 0.01 0.01 0.01 0.01 0.01 0.01 0.01 0.03 0.04 0.03 0.01 0.00 0.00
0.01 0.01 0.01 0.02 0.02 0.02 0.02 0.01 0.01 0.01 0.00 0.01 0.02 0.02 0.04 0.04 0.03 0.03 0.02 0.01 0.02 0.02 0.01 0.01 0.01 0.01 0.01 0.01 0.01 0.01 0.01 0.02 0.01 0.01 0.01 0.00 0.00 0.00 0.00 0.00 0.01 0.01 0.01 0.02 0.03 0.03 0.03 0.02 0.00
0.01 0.01 0.01 0.03 0.03 0.02 0.01 0.01 0.00 0.01 0.01 0.01 0.01 0.03 0.05 0.04 0.03 0.03 0.03 0.01 0.01 0.01 0.01 0.01 0.01 0.01 0.02 0.02 0.01 0.01 0.01 0.02 0.01 0.00 0.00 0.00 0.00 0.00 0.00 0.00 0.01 0.01 0.01 0.01 0.02 0.03 0.04 0.03 0.02
0.01 0.02 0.03 0.03 0.03 0.01 0.01 0.01 0.00 0.01 0.01 0.01 0.01 0.02 0.04 0.02 0.02 0.02 0.03 0.02 0.02 0.01 0.01 0.01 0.01 0.01 0.01 0.01 0.01 0.01 0.01 0.01 0.01 0.01 0.00 0.00 0.00 0.00 0.00 0.00 0.00 0.00 0.01 0.01 0.01 0.02 0.03 0.04 0.03
0.01 0.02 0.03 0.03 0.02 0.01 0.01 0.00 0.00 0.01 0.02 0.02 0.02 0.03 0.02 0.02 0.02 0.02 0.02 0.02 0.02 0.01 0.00 0.00 0.00 0.00 0.01 0.01 0.01 0.01 0.00 0.01 0.02 0.02 0.02 0.01 0.01 0.01 0.01 0.01 0.01 0.01 0.01 0.00 0.01 0.01 0.02 0.04 0.03
0.01 0.02 0.03 0.02 0.02 0.01 0.01 0.00 0.00 0.01 0.02 0.02 0.03 0.04 0.03 0.02 0.02 0.02 0.01 0.01 0.01 0.01 0.00 0.00 0.00 0.00 0.00 0.00 0.01 0.01 0.01 0.01 0.01 0.01 0.02 0.02 0.02 0.01 0.01 0.01 0.01 0.01 0.01 0.01 0.00 0.00 0.01 0.02 0.04
0.01 0.02 0.03 0.02 0.02 0.01 0.01 0.01 0.01 0.01 0.02 0.03 0.04 0.03 0.02 0.01 0.01 0.01 0.01 0.01 0.02 0.01 0.01 0.00 0.00 0.00 0.00 0.00 0.01 0.01 0.00 0.01 0.01 0.01 0.02 0.02 0.02 0.01 0.02 0.01 0.01 0.01 0.01 0.01 0.01 0.01 0.00 0.01 0.02
0.02 0.03 0.02 0.02 0.01 0.01 0.01 0.01 0.02 0.02 0.03 0.04 0.07 0.05 0.02 0.01 0.01 0.01 0.01 0.01 0.01 0.02 0.02 0.01 0.01 0.01 0.01 0.00 0.00 0.00 0.00 0.00 0.00 0.01 0.01 0.01 0.02 0.01 0.01 0.01 0.01 0.01 0.01 0.02 0.01 0.01 0.01 0.01 0.01
0.02 0.03 0.03 0.03 0.02 0.01 0.01 0.02 0.02 0.03 0.04 0.05 0.06 0.05 0.03 0.02 0.02 0.01 0.01 0.01 0.01 0.01 0.01 0.02 0.01 0.01 0.01 0.00 0.00 0.00 0.00 0.00 0.00 0.00 0.01 0.01 0.01 0.01 0.02 0.03 0.02 0.02 0.02 0.02 0.01 0.02 0.02 0.02 0.02
0.01 0.03 0.04 0.03 0.03 0.02 0.01 0.02 0.02 0.02 0.03 0.08 0.08 0.06 0.02 0.02 0.01 0.02 0.02 0.01 0.01 0.01 0.01 0.01 0.02 0.01 0.01 0.01 0.00 0.00 0.00 0.00 0.00 0.00 0.01 0.01 0.01 0.01 0.02 0.03 0.04 0.03 0.02 0.02 0.02 0.02 0.02 0.03 0.03
0.02 0.03 0.04 0.03 0.03 0.03 0.02 0.03 0.03 0.03 0.02 0.06 0.10 0.09 0.05 0.02 0.01 0.01 0.02 0.01 0.01 0.01 0.01 0.01 0.02 0.02 0.02 0.01 0.01 0.00 0.00 0.01 0.00 0.00 0.00 0.00 0.00 0.01 0.01 0.02 0.03 0.04 0.04 0.03 0.02 0.02 0.02 0.02 0.02
0.02 0.03 0.03 0.03 0.03 0.03 0.03 0.04 0.03 0.02 0.02 0.04 0.06 0.07 0.09 0.06 0.03 0.02 0.02 0.02 0.01 0.02 0.03 0.03 0.02 0.02 0.02 0.02 0.01 0.01 0.01 0.01 0.01 0.01 0.01 0.01 0.01 0.01 0.01 0.01 0.02 0.03 0.04 0.04 0.04 0.03 0.03 0.03 0.02
0.02 0.02 0.02 0.02 0.03 0.04 0.04 0.03 0.02 0.01 0.01 0.03 0.04 0.04 0.07 0.09 0.06 0.04 0.02 0.02 0.02 0.02 0.02 0.03 0.04 0.03 0.02 0.03 0.03 0.02 0.02 0.02 0.02 0.02 0.02 0.02 0.02 0.01 0.01 0.01 0.01 0.01 0.02 0.03 0.04 0.04 0.04 0.03 0.03
0.01 0.01 0.01 0.02 0.02 0.03 0.03 0.02 0.01 0.01 0.01 0.01 0.02 0.03 0.04 0.09 0.08 0.06 0.04 0.02 0.02 0.02 0.02 0.03 0.03 0.03 0.03 0.03 0.03 0.02 0.02 0.02 0.02 0.02 0.02 0.03 0.02 0.02 0.01 0.01 0.01 0.01 0.01 0.01 0.02 0.03 0.03 0.03 0.03
0.01 0.01 0.01 0.02 0.02 0.02 0.03 0.03 0.01 0.01 0.01 0.01 0.02 0.03 0.04 0.07 0.08 0.09 0.06 0.04 0.03 0.03 0.04 0.04 0.04 0.05 0.04 0.04 0.04 0.03 0.02 0.02 0.03 0.03 0.04 0.03 0.03 0.03 0.03 0.03 0.02 0.02 0.02 0.02 0.02 0.02 0.03 0.03 0.04
0.01 0.01 0.01 0.01 0.03 0.03 0.03 0.02 0.01 0.01 0.01 0.01 0.02 0.02 0.03 0.04 0.05 0.08 0.09 0.06 0.04 0.04 0.05 0.06 0.04 0.04 0.04 0.05 0.06 0.06 0.05 0.04 0.03 0.02 0.02 0.01 0.01 0.01 0.02 0.02 0.03 0.03 0.03 0.03 0.02 0.02 0.02 0.03 0.03
0.02 0.01 0.01 0.01 0.02 0.03 0.03 0.03 0.01 0.01 0.01 0.01 0.01 0.01 0.02 0.02 0.03 0.05 0.09 0.09 0.06 0.04 0.05 0.06 0.05 0.04 0.03 0.03 0.05 0.07 0.07 0.05 0.04 0.03 0.02 0.01 0.01 0.01 0.01 0.01 0.01 0.01 0.02 0.02 0.02 0.02 0.02 0.02 0.02
0.01 0.01 0.01 0.02 0.02 0.03 0.03 0.02 0.01 0.01 0.01 0.01 0.00 0.01 0.01 0.02 0.02 0.02 0.04 0.05 0.05 0.04 0.03 0.03 0.03 0.03 0.03 0.02 0.03 0.05 0.08 0.08 0.08 0.07 0.07 0.06 0.04 0.03 0.02 0.02 0.01 0.01 0.02 0.01 0.01 0.01 0.01 0.01 0.01
0.01 0.02 0.02 0.02 0.03 0.04 0.02 0.02 0.02 0.01 0.01 0.01 0.01 0.01 0.01 0.02 0.03 0.02 0.02 0.02 0.03 0.03 0.03 0.03 0.02 0.02 0.03 0.02 0.03 0.03 0.04 0.06 0.08 0.09 0.09 0.09 0.08 0.07 0.06 0.05 0.04 0.03 0.02 0.02 0.01 0.01 0.01 0.01 0.01
0.02 0.03 0.04 0.04 0.04 0.03 0.01 0.01 0.01 0.01 0.01 0.01 0.01 0.01 0.01 0.01 0.02 0.02 0.01 0.01 0.02 0.02 0.02 0.03 0.02 0.02 0.03 0.03 0.04 0.04 0.04 0.04 0.05 0.07 0.08 0.09 0.10 0.10 0.10 0.09 0.07 0.05 0.04 0.03 0.03 0.02 0.02 0.02 0.02
0.02 0.02 0.03 0.03 0.02 0.01 0.01 0.01 0.01 0.00 0.00 0.00 0.01 0.02 0.01 0.00 0.00 0.01 0.01 0.01 0.01 0.01 0.01 0.02 0.02 0.02 0.02 0.03 0.03 0.03 0.03 0.04 0.06 0.08 0.09 0.10 0.09 0.08 0.08 0.08 0.08 0.06 0.05 0.04 0.03 0.03 0.02 0.02 0.02
0.01 0.02 0.02 0.02 0.02 0.01 0.01 0.01 0.01 0.01 0.00 0.00 0.01 0.02 0.01 0.01 0.00 0.00 0.01 0.00 0.00 0.00 0.01 0.01 0.02 0.02 0.02 0.02 0.02 0.02 0.02 0.03 0.03 0.04 0.05 0.06 0.07 0.09 0.09 0.09 0.09 0.08 0.07 0.06 0.06 0.05 0.05 0.04 0.04
0.00 0.01 0.01 0.03 0.02 0.01 0.01 0.01 0.01 0.01 0.01 0.00 0.00 0.01 0.01 0.01 0.01 0.01 0.00 0.00 0.00 0.00 0.00 0.01 0.01 0.01 0.02 0.02 0.02 0.02 0.02 0.02 0.03 0.04 0.05 0.05 0.06 0.07 0.08 0.10 0.10 0.10 0.10 0.10 0.09 0.07 0.06 0.04 0.03
0.00 0.01 0.01 0.02 0.01 0.01 0.01 0.01 0.01 0.01 0.01 0.01 0.01 0.00 0.01 0.01 0.01 0.01 0.01 0.00 0.00 0.01 0.01 0.00 0.00 0.00 0.01 0.02 0.02 0.02 0.02 0.02 0.03 0.03 0.04 0.05 0.06 0.06 0.07 0.07 0.09 0.10 0.10 0.10 0.09 0.08 0.06 0.05 0.04
0.00 0.00 0.01 0.02 0.02 0.01 0.01 0.01 0.01 0.01 0.01 0.00 0.01 0.00 0.01 0.01 0.01 0.01 0.01 0.01 0.01 0.01 0.01 0.00 0.00 0.00 0.00 0.01 0.01 0.02 0.02 0.02 0.03 0.03 0.03 0.03 0.04 0.05 0.06 0.06 0.06 0.07 0.06 0.06 0.05 0.05 0.05 0.05 0.05
MSLP
1014.35 1015.03 1016.25 1017.89 1019.77 1021.65 1023.33 1024.62 1025.46 1025.87 1026.00 1026.03 1026.13 1026.43 1026.97 1027.71 1028.51 1029.17 1029.55 1029.52 1029.06 1028.23 1027.15 1025.99 1024.91 1024.03 1023.39 1022.98 1022.72 1022.53 1022.33 1022.08 1021.77 1021.42 1021.08 1020.80 1020.59 1020.45 1020.36 1020.30 1020.23 1020.13 1020.01 1019.89 1019.81 1019.77 1019.79 1019.85 1019.92
1015.17 1016.19 1017.72 1019.59 1021.59 1023.48 1025.05 1026.17 1026.80 1027.01 1026.98 1026.91 1027.00 1027.35 1027.98 1028.81 1029.69 1030.41 1030.78 1030.71 1030.17 1029.24 1028.07 1026.82 1025.67 1024.75 1024.08 1023.65 1023.39 1023.21 1023.02 1022.78 1022.47 1022.12 1021.77 1021.46 1021.21 1021.02 1020.87 1020.74 1020.59 1020.42 1020.25 1020.08 1019.96 1019.89 1019.89 1019.93 1019.97
1016.11 1017.46 1019.25 1021.28 1023.34 1025.19 1026.63 1027.56 1028.00 1028.04 1027.89 1027.78 1027.87 1028.26 1028.96 1029.85 1030.76 1031.48 1031.82 1031.69 1031.09 1030.10 1028.88 1027.60 1026.45 1025.53 1024.88 1024.47 1024.22 1024.04 1023.85 1023.60 1023.28 1022.91 1022.54 1022.20 1021.91 1021.67 1021.46 1021.27 1021.06 1020.82 1020.58 1020.36 1020.19 1020.07 1020.03 1020.02 1020.03
1017.12 1018.74 1020.72 1022.85 1024.91 1026.67 1027.97 1028.73 1029.02 1028.95 1028.74 1028.62 1028.73 1029.16 1029.89 1030.79 1031.67 1032.33 1032.61 1032.41 1031.76 1030.76 1029.55 1028.33 1027.24 1026.38 1025.79 1025.41 1025.17 1024.99 1024.78 1024.50 1024.14 1023.74 1023.34 1022.97 1022.65 1022.38 1022.14 1021.90 1021.64 1021.37 1021.08 1020.80 1020.57 1020.40 1020.29 1020.23 1020.18
1018.14 1019.96 1022.05 1024.21 1026.21 1027.85 1029.01 1029.65 1029.84 1029.72 1029.53 1029.44 1029.59 1030.05 1030.77 1031.61 1032.41 1032.96 1033.13 1032.87 1032.19 1031.22 1030.09 1028.98 1028.02 1027.28 1026.78 1026.45 1026.23 1026.03 1025.78 1025.44 1025.04 1024.59 1024.16 1023.76 1023.43 1023.15 1022.90 1022.65 1022.37 1022.07 1021.75 1021.43 1021.15 1020.92 1020.74 1020.61 1020.48
1019.17 1021.10 1023.23 1025.33 1027.22 1028.73 1029.76 1030.31 1030.46 1030.38 1030.25 1030.24 1030.45 1030.93 1031.60 1032.35 1032.99 1033.39 1033.44 1033.10 1032.42 1031.51 1030.52 1029.57 1028.79 1028.21 1027.81 1027.55 1027.34 1027.11 1026.80 1026.41 1025.94 1025.45 1024.99 1024.58 1024.25 1023.98 1023.74 1023.49 1023.22 1022.91 1022.58 1022.23 1021.91 1021.63 1021.39 1021.18 1020.98
1020.25 1022.21 1024.27 1026.26 1027.98 1029.33 1030.25 1030.75 1030.93 1030.93 1030.92 1031.02 1031.31 1031.79 1032.40 1033.00 1033.48 1033.70 1033.61 1033.20 1032.53 1031.72 1030.88 1030.13 1029.55 1029.13 1028.86 1028.66 1028.46 1028.19 1027.83 1027.36 1026.85 1026.32 1025.84 1025.44 1025.11 1024.86 1024.64 1024.41 1024.15 1023.84 1023.50 1023.15 1022.80 1022.47 1022.18 1021.91 1021.65
1021.42 1023.33 1025.27 1027.06 1028.59 1029.77 1030.57 1031.05 1031.29 1031.41 1031.55 1031.78 1032.16 1032.64 1033.17 1033.63 1033.92 1033.96 1033.73 1033.26 1032.62 1031.91 1031.25 1030.69 1030.30 1030.04 1029.88 1029.73 1029.53 1029.22 1028.80 1028.29 1027.74 1027.19 1026.71 1026.32 1026.02 1025.78 1025.58 1025.36 1025.10 1024.79 1024.45 1024.07 1023.71 1023.35 1023.02 1022.71 1022.40
1022.73 1024.54 1026.29 1027.86 1029.16 1030.15 1030.84 1031.29 1031.60 1031.86 1032.15 1032.52 1032.98 1033.46 1033.91 1034.24 1034.36 1034.24 1033.90 1033.38 1032.77 1032.17 1031.66 1031.28 1031.05 1030.91 1030.82 1030.70 1030.49 1030.15 1029.70 1029.16 1028.60 1028.06 1027.60 1027.23 1026.95 1026.72 1026.51 1026.28 1026.01 1025.69 1025.32 1024.94 1024.55 1024.18 1023.83 1023.49 1023.14
1024.19 1025.86 1027.40 1028.71 1029.76 1030.56 1031.13 1031.56 1031.92 1032.30 1032.73 1033.22 1033.75 1034.24 1034.62 1034.83 1034.81 1034.57 1034.15 1033.61 1033.05 1032.55 1032.16 1031.91 1031.78 1031.72 1031.66 1031.54 1031.31 1030.95 1030.48 1029.94 1029.40 1028.90 1028.48 1028.14 1027.87 1027.64 1027.41 1027.15 1026.84 1026.48 1026.08 1025.67 1025.27 1024.88 1024.52 1024.16 1023.79
1025.76 1027.28 1028.59 1029.66 1030.46 1031.06 1031.51 1031.89 1032.29 1032.75 1033.29 1033.87 1034.44 1034.93 1035.27 1035.39 1035.28 1034.97 1034.51 1033.98 1033.47 1033.04 1032.74 1032.57 1032.49 1032.45 1032.37 1032.22 1031.95 1031.57 1031.11 1030.60 1030.11 1029.67 1029.31 1029.01 1028.76 1028.52 1028.25 1027.94 1027.57 1027.15 1026.71 1026.27 1025.84 1025.44 1025.06 1024.68 1024.30
1027.36 1028.73 1029.84 1030.67 1031.25 1031.66 1031.99 1032.32 1032.72 1033.23 1033.82 1034.45 1035.05 1035.52 1035.82 1035.89 1035.74 1035.40 1034.94 1034.45 1034.00 1033.64 1033.39 1033.24 1033.16 1033.08 1032.95 1032.74 1032.42 1032.03 1031.58 1031.13 1030.71 1030.36 1030.06 1029.81 1029.57 1029.31 1029.00 1028.63 1028.19 1027.72 1027.23 1026.75 1026.30 1025.88 1025.48 1025.08 1024.66
1028.89 1030.13 1031.05 1031.68 1032.07 1032.33 1032.55 1032.82 1033.20 1033.71 1034.32 1034.95 1035.54 1035.99 1036.25 1036.30 1036.13 1035.81 1035.40 1034.97 1034.58 1034.27 1034.05 1033.90 1033.77 1033.61 1033.40 1033.11 1032.75 1032.34 1031.92 1031.53 1031.19 1030.93 1030.71 1030.50 1030.28 1030.01 1029.66 1029.23 1028.73 1028.21 1027.68 1027.18 1026.70 1026.26 1025.83 1025.39 1024.93
1030.24 1031.35 1032.12 1032.60 1032.86 1033.01 1033.15 1033.37 1033.71 1034.20 1034.77 1035.37 1035.91 1036.31 1036.54 1036.57 1036.43 1036.15 1035.81 1035.45 1035.14 1034.88 1034.67 1034.49 1034.29 1034.05 1033.75 1033.38 1032.97 1032.55 1032.16 1031.83 1031.58 1031.39 1031.24 1031.08 1030.88 1030.59 1030.21 1029.75 1029.22 1028.67 1028.12 1027.60 1027.12 1026.65 1026.19 1025.70 1025.17
1031.32 1032.32 1032.98 1033.35 1033.53 1033.62 1033.72 1033.91 1034.22 1034.66 1035.17 1035.70 1036.16 1036.50 1036.68 1036.70 1036.58 1036.37 1036.10 1035.84 1035.60 1035.39 1035.20 1034.99 1034.74 1034.42 1034.04 1033.60 1033.16 1032.73 1032.37 1032.10 1031.91 1031.78 1031.68 1031.55 1031.36 1031.07 1030.68 1030.20 1029.67 1029.12 1028.58 1028.07 1027.58 1027.11 1026.61 1026.07 1025.46
1032.14 1033.01 1033.58 1033.90 1034.05 1034.13 1034.23 1034.41 1034.70 1035.08 1035.52 1035.94 1036.30 1036.56 1036.68 1036.69 1036.59 1036.43 1036.25 1036.08 1035.92 1035.77 1035.59 1035.38 1035.09 1034.73 1034.30 1033.83 1033.37 1032.96 1032.62 1032.39 1032.24 1032.14 1032.05 1031.93 1031.74 1031.45 1031.06 1030.60 1030.09 1029.57 1029.07 1028.59 1028.12 1027.65 1027.12 1026.53 1025.86
1032.70 1033.45 1033.95 1034.23 1034.40 1034.51 1034.65 1034.84 1035.11 1035.44 1035.78 1036.09 1036.34 1036.50 1036.56 1036.54 1036.45 1036.35 1036.24 1036.15 1036.07 1035.97 1035.83 1035.63 1035.35 1034.98 1034.55 1034.09 1033.65 1033.26 1032.95 1032.73 1032.59 1032.49 1032.39 1032.25 1032.04 1031.74 1031.36 1030.93 1030.47 1030.01 1029.57 1029.14 1028.71 1028.25 1027.71 1027.09 1026.36
1033.08 1033.71 1034.13 1034.41 1034.61 1034.77 1034.96 1035.17 1035.42 1035.69 1035.94 1036.14 1036.27 1036.33 1036.32 1036.27 1036.20 1036.13 1036.09 1036.07 1036.05 1036.01 1035.92 1035.76 1035.51 1035.18 1034.79 1034.38 1033.99 1033.64 1033.36 1033.15 1032.99 1032.86 1032.71 1032.52 1032.27 1031.96 1031.59 1031.19 1030.79 1030.40 1030.04 1029.67 1029.29 1028.86 1028.33 1027.70 1026.95
1033.38 1033.86 1034.22 1034.49 1034.72 1034.94 1035.16 1035.39 1035.61 1035.81 1035.96 1036.04 1036.07 1036.04 1035.97 1035.90 1035.84 1035.81 1035.82 1035.85 1035.88 1035.89 1035.85 1035.74 1035.55 1035.29 1034.98 1034.66 1034.34 1034.05 1033.81 1033.60 1033.41 1033.22 1033.01 1032.76 1032.46 1032.12 1031.76 1031.39 1031.05 1030.73 1030.44 1030.14 1029.81 1029.42 1028.92 1028.30 1027.56
1033.65 1034.00 1034.30 1034.56 1034.81 1035.05 1035.28 1035.48 1035.65 1035.75 1035.79 1035.77 1035.70 1035.61 1035.51 1035.44 1035.41 1035.42 1035.47 1035.54 1035.61 1035.65 1035.65 1035.59 1035.46 1035.29 1035.08 1034.86 1034.64 1034.43 1034.23 1034.03 1033.81 1033.56 1033.28 1032.95 1032.60 1032.23 1031.87 1031.54 1031.25 1030.99 1030.76 1030.52 1030.24 1029.89 1029.42 1028.84 1028.14
1033.96 1034.20 1034.43 1034.67 1034.91 1035.13 1035.32 1035.45 1035.51 1035.49 1035.41 1035.29 1035.15 1035.02 1034.93 1034.88 1034.90 1034.97 1035.07 1035.18 1035.26 1035.32 1035.33 1035.30 1035.23 1035.13 1035.03 1034.92 1034.80 1034.68 1034.54 1034.36 1034.12 1033.83 1033.49 1033.11 1032.71 1032.32 1031.96 1031.65 1031.39 1031.18 1030.99 1030.79 1030.55 1030.23 1029.80 1029.26 1028.62
1034.32 1034.49 1034.67 1034.87 1035.06 1035.21 1035.30 1035.29 1035.20 1035.03 1034.81 1034.58 1034.38 1034.25 1034.20 1034.24 1034.34 1034.48 1034.64 1034.77 1034.86 1034.91 1034.91 1034.88 1034.83 1034.80 1034.78 1034.77 1034.77 1034.74 1034.67 1034.53 1034.31 1034.01 1033.63 1033.22 1032.80 1032.39 1032.04 1031.75 1031.52 1031.34 1031.17 1030.98 1030.75 1030.44 1030.04 1029.55 1028.97
1034.74 1034.87 1035.02 1035.18 1035.29 1035.33 1035.25 1035.05 1034.74 1034.37 1034.00 1033.67 1033.43 1033.33 1033.36 1033.50 1033.71 1033.95 1034.17 1034.34 1034.42 1034.44 1034.40 1034.34 1034.30 1034.30 1034.34 1034.42 1034.52 1034.60 1034.61 1034.54 1034.35 1034.07 1033.70 1033.29 1032.87 1032.48 1032.14 1031.87 1031.66 1031.48 1031.31 1031.11 1030.86 1030.54 1030.15 1029.68 1029.16
1035.18 1035.33 1035.48 1035.59 1035.61 1035.48 1035.19 1034.75 1034.20 1033.60 1033.05 1032.61 1032.35 1032.29 1032.41 1032.68 1033.03 1033.38 1033.67 1033.86 1033.94 1033.91 1033.82 1033.72 1033.65 1033.66 1033.74 1033.90 1034.09 1034.26 1034.37 1034.38 1034.26 1034.03 1033.70 1033.32 1032.93 1032.57 1032.26 1032.01 1031.81 1031.62 1031.43 1031.20 1030.91 1030.56 1030.15 1029.70 1029.21
1035.64 1035.84 1036.02 1036.09 1036.00 1035.70 1035.17 1034.46 1033.63 1032.80 1032.06 1031.51 1031.22 1031.20 1031.42 1031.81 1032.29 1032.76 1033.13 1033.35 1033.41 1033.34 1033.19 1033.03 1032.93 1032.93 1033.05 1033.26 1033.53 1033.80 1034.01 1034.11 1034.08 1033.92 1033.66 1033.33 1032.99 1032.67 1032.39 1032.16 1031.95 1031.75 1031.53 1031.25 1030.91 1030.51 1030.07 1029.60 1029.13
1036.10 1036.39 1036.60 1036.65 1036.45 1035.96 1035.20 1034.23 1033.13 1032.06 1031.14 1030.48 1030.15 1030.15 1030.45 1030.95 1031.54 1032.10 1032.53 1032.78 1032.83 1032.72 1032.52 1032.32 1032.19 1032.19 1032.34 1032.61 1032.95 1033.31 1033.62 1033.81 1033.86 1033.78 1033.59 1033.32 1033.03 1032.75 1032.50 1032.28 1032.07 1031.84 1031.58 1031.25 1030.85 1030.39 1029.91 1029.42 1028.94
1036.55 1036.93 1037.18 1037.20 1036.91 1036.27 1035.29 1034.08 1032.75 1031.47 1030.38 1029.62 1029.23 1029.24 1029.59 1030.15 1030.81 1031.43 1031.89 1032.15 1032.19 1032.06 1031.84 1031.61 1031.48 1031.50 1031.68 1032.01 1032.43 1032.87 1033.26 1033.54 1033.66 1033.65 1033.51 1033.30 1033.04 1032.79 1032.55 1032.33 1032.11 1031.86 1031.55 1031.17 1030.71 1030.21 1029.68 1029.16 1028.68
1036.96 1037.42 1037.70 1037.70 1037.32 1036.55 1035.41 1034.02 1032.51 1031.07 1029.86 1029.00 1028.57 1028.55 1028.89 1029.47 1030.14 1030.76 1031.22 1031.47 1031.51 1031.37 1031.15 1030.94 1030.84 1030.90 1031.14 1031.53 1032.03 1032.54 1032.99 1033.33 1033.51 1033.54 1033.44 1033.25 1033.01 1032.77 1032.53 1032.30 1032.05 1031.77 1031.42 1031.00 1030.50 1029.96 1029.39 1028.85 1028.35
1037.32 1037.81 1038.08 1038.03 1037.58 1036.72 1035.49 1033.99 1032.39 1030.87 1029.59 1028.67 1028.19 1028.13 1028.42 1028.94 1029.56 1030.14 1030.56 1030.78 1030.80 1030.67 1030.48 1030.32 1030.28 1030.42 1030.74 1031.21 1031.77 1032.34 1032.84 1033.21 1033.42 1033.46 1033.37 1033.17 1032.93 1032.67 1032.41 1032.15 1031.88 1031.57 1031.19 1030.73 1030.21 1029.64 1029.06 1028.50 1027.99
1037.59 1038.03 1038.24 1038.12 1037.61 1036.69 1035.42 1033.91 1032.30 1030.79 1029.51 1028.58 1028.07 1027.95 1028.16 1028.59 1029.10 1029.58 1029.92 1030.09 1030.10 1029.99 1029.85 1029.77 1029.83 1030.06 1030.47 1031.02 1031.64 1032.25 1032.78 1033.16 1033.36 1033.39 1033.28 1033.07 1032.80 1032.51 1032.22 1031.93 1031.63 1031.29 1030.89 1030.41 1029.88 1029.30 1028.70 1028.13 1027.61
Thickness
5701 5706 5708 5702 5684 5665 5660 5670 5681 5685 5685 5688 5691 5688 5681 5674 5671 5665 5671 5676 5677 5676 5676 5676 5676 5677 5677 5677 5678 5678 5678 5678 5678 5678 5678 5678 5678 5678 5678 5678 5678 5678 5678 5678 5677 5677 5676 5676 5676
5697 5701 5698 5686 5665 5649 5654 5668 5674 5681 5686 5688 5686 5682 5676 5670 5672 5669 5670 5672 5674 5673 5673 5673 5673 5673 5674 5674 5675 5675 5675 5675 5675 5675 5675 5675 5675 5674 5674 5674 5674 5674 5674 5674 5673 5673 5673 5672 5672
5694 5695 5681 5666 5653 5648 5655 5667 5672 5679 5685 5685 5677 5674 5669 5665 5667 5666 5668 5669 5670 5669 5669 5669 5669 5670 5670 5671 5671 5671 5671 5672 5672 5672 5672 5671 5671 5671 5671 5671 5671 5670 5670 5670 5670 5669 5669 5668 5668
5686 5679 5668 5653 5647 5654 5659 5664 5670 5675 5678 5678 5673 5664 5662 5663 5664 5664 5666 5666 5667 5666 5665 5665 5665 5666 5666 5666 5667 5667 5667 5667 5667 5667 5667 5667 5667 5667 5667 5667 5667 5666 5666 5666 5665 5665 5665 5664 5664
5677 5663 5649 5638 5644 5652 5658 5664 5669 5668 5667 5667 5668 5658 5654 5657 5662 5662 5662 5662 5662 5661 5661 5661 5661 5661 5661 5661 5662 5663 5663 5663 5663 5663 5663 5662 5662 5662 5662 5662 5662 5662 5662 5661 5661 5660 5660 5660 5660
5658 5649 5633 5630 5639 5648 5653 5658 5661 5658 5658 5659 5659 5653 5647 5651 5654 5655 5656 5656 5657 5656 5656 5656 5656 5656 5656 5656 5657 5657 5657 5658 5658 5658 5657 5657 5657 5657 5657 5657 5657 5657 5657 5657 5656 5656 5656 5656 5656
5646 5636 5627 5630 5634 5638 5645 5650 5649 5648 5649 5649 5652 5646 5641 5644 5648 5650 5650 5650 5650 5650 5650 5650 5650 5651 5651 5651 5651 5652 5652 5652 5652 5652 5652 5652 5652 5652 5652 5651 5651 5652 5652 5652 5652 5651 5651 5651 5651
5643 5631 5623 5621 5626 5629 5636 5640 5640 5640 5640 5644 5645 5637 5634 5638 5642 5644 5644 5644 5644 5644 5644 5644 5645 5646 5646 5646 5646 5646 5646 5646 5646 5646 5647 5646 5646 5646 5646 5646 5646 5646 5646 5646 5646 5646 5646 5646 5645
5638 5618 5610 5615 5618 5620 5627 5629 5632 5634 5633 5633 5633 5632 5633 5636 5637 5637 5636 5636 5636 5636 5637 5638 5639 5639 5640 5640 5640 5640 5640 5640 5640 5640 5640 5641 5641 5640 5640 5640 5640 5640 5640 5640 5640 5640 5641 5641 5640
5618 5602 5605 5611 5613 5613 5617 5619 5621 5622 5622 5621 5622 5624 5627 5629 5629 5629 5628 5628 5628 5629 5630 5631 5632 5633 5634 5634 5633 5634 5634 5633 5633 5633 5634 5634 5634 5634 5634 5634 5634 5634 5634 5634 5634 5634 5634 5634 5634
5604 5596 5599 5602 5606 5609 5608 5608 5612 5613 5610 5610 5612 5614 5618 5620 5621 5621 5620 5621 5622 5622 5624 5625 5626 5627 5627 5627 5626 5626 5627 5626 5626 5626 5627 5627 5628 5627 5627 5627 5627 5627 5627 5627 5628 5628 5628 5628 5628
5591 5589 5593 5594 5598 5600 5600 5600 5599 5601 5602 5606 5607 5608 5609 5610 5610 5611 5612 5613 5615 5616 5617 5618 5619 5620 5620 5620 5619 5619 5619 5619 5619 5619 5620 5620 5620 5620 5619 5619 5619 5620 5620 5620 5620 5620 5621 5620 5621
5580 5579 5582 5584 5587 5588 5590 5589 5589 5589 5593 5597 5599 5599 5598 5599 5600 5603 5605 5606 5608 5609 5610 5612 5613 5613 5613 5613 5613 5612 5612 5612 5612 5612 5612 5613 5613 5612 5612 5612 5612 5612 5612 5612 5612 5612 5613 5613 5613
5572 5571 5572 5576 5578 5580 5580 5579 5580 5579 5583 5586 5588 5588 5588 5589 5592 5594 5597 5599 5600 5602 5603 5605 5607 5607 5607 5607 5606 5605 5605 5605 5605 5605 5604 5604 5605 5604 5604 5604 5604 5604 5604 5604 5604 5604 5605 5604 5604
5566 5563 5564 5566 5569 5570 5573 5569 5568 5572 5574 5575 5576 5578 5579 5581 5584 5586 5588 5591 5593 5595 5597 5599 5600 5601 5601 5600 5599 5598 5598 5597 5597 5597 5596 5596 5596 5596 5596 5596 5595 5595 5595 5595 5595 5596 5595 5595 5595
5557 5552 5549 5555 5560 5562 5562 5555 5561 5563 5565 5565 5566 5568 5570 5572 5575 5578 5581 5583 5586 5588 5589 5591 5593 5594 5594 5593 5593 5592 5591 5590 5589 5589 5588 5588 5588 5588 5588 5587 5586 5586 5586 5586 5586 5586 5585 5585 5584
5542 5538 5540 5545 5551 5552 5551 5546 5553 5556 5557 5557 5558 5560 5562 5563 5566 5569 5572 5575 5577 5580 5582 5583 5585 5586 5586 5586 5586 5585 5584 5583 5582 5581 5581 5580 5579 5579 5578 5578 5577 5576 5576 5576 5576 5575 5574 5574 5574
5534 5532 5533 5534 5540 5541 5537 5538 5545 5548 5549 5548 5549 5552 5553 5555 5557 5561 5564 5567 5569 5571 5573 5575 5576 5578 5578 5578 5578 5577 5576 5574 5574 5573 5572 5571 5570 5570 5569 5568 5567 5566 5566 5565 5564 5564 5563 5562 5561
5534 5529 5526 5528 5534 5532 5530 5532 5539 5541 5541 5541 5542 5543 5545 5547 5549 5552 5555 5558 5561 5562 5564 5566 5568 5569 5569 5569 5568 5568 5566 5565 5564 5564 5563 5562 5561 5560 5559 5557 5556 5555 5554 5553 5552 5552 5551 5549 5549
5528 5522 5518 5521 5527 5527 5523 5526 5533 5536 5536 5537 5536 5536 5538 5539 5541 5544 5546 5548 5550 5553 5555 5557 5558 5559 5560 5560 5559 5558 5557 5555 5554 5554 5553 5552 5551 5550 5548 5547 5545 5543 5542 5541 5540 5539 5537 5536 5534
5521 5518 5516 5516 5517 5520 5519 5524 5528 5532 5532 5533 5531 5531 5530 5532 5533 5535 5537 5538 5540 5543 5545 5547 5548 5549 5550 5551 5550 5549 5548 5546 5545 5544 5543 5542 5540 5539 5537 5536 5534 5532 5531 5529 5527 5525 5524 5521 5519
5517 5518 5517 5515 5510 5507 5511 5510 5523 5523 5524 5527 5526 5523 5524 5526 5527 5528 5529 5531 5532 5534 5536 5537 5539 5540 5541 5542 5542 5540 5538 5537 5536 5534 5532 5531 5529 5528 5526 5524 5522 5520 5518 5516 5514 5512 5510 5508 5505
5513 5516 5514 5513 5507 5502 5503 5501 5512 5516 5522 5524 5523 5521 5520 5520 5521 5522 5523 5524 5525 5526 5527 5528 5529 5530 5531 5532 5531 5530 5528 5527 5526 5524 5522 5520 5518 5517 5515 5513 5510 5508 5505 5503 5500 5499 5497 5494 5491
5512 5512 5510 5503 5498 5498 5502 5499 5507 5510 5519 5522 5521 5518 5516 5516 5515 5516 5516 5517 5518 5518 5519 5519 5520 5521 5521 5521 5521 5519 5518 5516 5514 5513 5512 5509 5507 5505 5503 5501 5499 5496 5493 5490 5487 5486 5483 5480 5477
5506 5499 5488 5486 5475 5485 5498 5499 5504 5517 5518 5517 5516 5512 5510 5509 5509 5509 5509 5510 5510 5510 5511 5511 5512 5512 5513 5512 5511 5509 5508 5506 5505 5503 5501 5499 5496 5494 5492 5489 5486 5483 5480 5478 5475 5473 5470 5467 5463
5499 5495 5484 5482 5479 5483 5491 5494 5509 5517 5515 5513 5510 5507 5505 5503 5503 5503 5503 5503 5503 5503 5503 5503 5503 5503 5503 5503 5501 5500 5498 5496 5495 5493 5491 5488 5485 5483 5480 5478 5475 5472 5469 5466 5463 5460 5457 5453 5450
5495 5486 5487 5474 5462 5468 5484 5492 5507 5513 5511 5508 5505 5503 5500 5498 5497 5497 5497 5497 5497 5497 5496 5496 5495 5495 5494 5493 5492 5490 5488 5486 5485 5483 5480 5477 5474 5472 5469 5466 5463 5460 5457 5455 5451 5448 5444 5441 5437
5491 5485 5473 5466 5467 5473 5487 5495 5501 5510 5508 5506 5501 5498 5496 5494 5492 5492 5491 5490 5490 5490 5490 5489 5488 5487 5486 5485 5483 5481 5478 5476 5474 5472 5469 5466 5463 5460 5458 5456 5452 5449 5446 5443 5440 5436 5431 5427 5423
5485 5482 5474 5464 5462 5467 5474 5497 5508 5506 5504 5502 5499 5496 5493 5491 5489 5487 5486 5486 5485 5484 5483 5482 5480 5479 5477 5475 5473 5471 5468 5466 5464 5461 5459 5456 5453 5450 5447 5444 5441 5438 5435 5431 5428 5424 5419 5415 5411
5481 5481 5475 5469 5460 5461 5469 5490 5509 5503 5501 5498 5495 5493 5490 5488 5485 5483 5481 5480 5478 5477 5476 5474 5472 5471 5469 5467 5464 5461 5459 5457 5454 5451 5448 5445 5442 5439 5436 5433 5430 5426 5423 5419 5415 5411 5407 5402 5398